Year,Month,Day,Hour,Minute,Value (Times are PST for temperature in C)
2010,06,29,07,31,14.20
2010,06,29,07,32,14.30
2010,06,29,07,33,14.30
2010,06,29,07,34,14.40
2010,06,29,07,35,14.50
2010,06,29,07,36,14.60
2010,06,29,07,37,14.60
2010,06,29,07,38,14.70
2010,06,29,07,39,14.80
2010,06,29,07,40,15.00
2010,06,29,07,41,15.00
2010,06,29,07,42,15.00
2010,06,29,07,43,15.10
2010,06,29,07,44,15.20
2010,06,29,07,45,15.20
2010,06,29,07,46,15.10
2010,06,29,07,47,15.00
2010,06,29,07,48,15.00
2010,06,29,07,49,15.00
2010,06,29,07,50,15.00
2010,06,29,07,51,14.90
2010,06,29,07,52,14.80
2010,06,29,07,53,14.80
2010,06,29,07,54,14.80
2010,06,29,07,55,14.70
2010,06,29,07,56,14.70
2010,06,29,07,57,14.70
2010,06,29,07,58,14.70
2010,06,29,07,59,14.70
2010,06,29,08,00,14.70
2010,06,29,08,01,14.70
2010,06,29,08,02,14.60
2010,06,29,08,03,14.60
2010,06,29,08,04,14.70
2010,06,29,08,05,14.70
2010,06,29,08,06,14.70
2010,06,29,08,07,14.70
2010,06,29,08,08,14.80
2010,06,29,08,09,14.90
2010,06,29,08,10,15.00
2010,06,29,08,11,15.00
2010,06,29,08,12,15.10
2010,06,29,08,13,15.20
2010,06,29,08,14,15.20
2010,06,29,08,15,15.20
2010,06,29,08,16,15.20
2010,06,29,08,17,15.10
2010,06,29,08,18,15.20
2010,06,29,08,19,15.20
2010,06,29,08,20,15.10
2010,06,29,08,21,15.00
2010,06,29,08,22,15.00
2010,06,29,08,23,15.00
2010,06,29,08,24,15.00
2010,06,29,08,25,15.00
2010,06,29,08,26,15.00
2010,06,29,08,27,15.00
2010,06,29,08,28,15.00
2010,06,29,08,29,15.00
2010,06,29,08,30,15.00
2010,06,29,08,31,15.00
2010,06,29,08,32,15.00
2010,06,29,08,33,15.10
2010,06,29,08,34,15.30
2010,06,29,08,35,15.30
2010,06,29,08,36,15.40
2010,06,29,08,37,15.40
2010,06,29,08,38,15.40
2010,06,29,08,39,15.50
2010,06,29,08,40,15.40
2010,06,29,08,41,15.40
2010,06,29,08,42,15.30
2010,06,29,08,43,15.30
2010,06,29,08,44,15.20
2010,06,29,08,45,15.20
2010,06,29,08,46,15.20
2010,06,29,08,47,15.20
2010,06,29,08,48,15.20
2010,06,29,08,49,15.20
2010,06,29,08,50,15.20
2010,06,29,08,51,15.00
2010,06,29,08,52,15.00
2010,06,29,08,53,15.00
2010,06,29,08,54,15.00
2010,06,29,08,55,14.90
2010,06,29,08,56,14.90
2010,06,29,08,57,14.90
2010,06,29,08,58,14.90
2010,06,29,08,59,14.80
2010,06,29,09,00,14.80
2010,06,29,09,01,14.70
2010,06,29,09,02,14.60
2010,06,29,09,03,14.60
2010,06,29,09,04,14.60
2010,06,29,09,05,14.50
2010,06,29,09,06,14.50
2010,06,29,09,07,14.40
2010,06,29,09,08,14.40
2010,06,29,09,09,14.40
2010,06,29,09,10,14.50
2010,06,29,09,11,14.50
2010,06,29,09,12,14.60
2010,06,29,09,13,14.60
2010,06,29,09,14,14.70
2010,06,29,09,15,14.70
2010,06,29,09,16,14.80
2010,06,29,09,17,14.80
2010,06,29,09,18,14.90
2010,06,29,09,19,14.90
2010,06,29,09,20,15.00
2010,06,29,09,21,15.00
2010,06,29,09,22,15.00
2010,06,29,09,23,15.00
2010,06,29,09,24,15.00
2010,06,29,09,25,15.00
2010,06,29,09,26,15.00
2010,06,29,09,27,15.00
2010,06,29,09,28,15.00
2010,06,29,09,29,15.10
2010,06,29,09,30,15.20
2010,06,29,09,31,15.30
2010,06,29,09,32,15.30
2010,06,29,09,33,15.30
2010,06,29,09,34,15.30
2010,06,29,09,35,15.30
2010,06,29,09,36,15.40
2010,06,29,09,37,15.50
2010,06,29,09,38,15.60
2010,06,29,09,39,15.50
2010,06,29,09,40,15.40
2010,06,29,09,41,15.30
2010,06,29,09,42,15.20
2010,06,29,09,43,15.20
2010,06,29,09,44,15.10
2010,06,29,09,45,15.10
2010,06,29,09,46,15.20
2010,06,29,09,47,15.20
2010,06,29,09,48,15.30
2010,06,29,09,49,15.30
2010,06,29,09,50,15.30
2010,06,29,09,51,15.30
2010,06,29,09,52,15.30
2010,06,29,09,53,15.30
2010,06,29,09,54,15.20
2010,06,29,09,55,15.20
2010,06,29,09,56,15.20
2010,06,29,09,57,15.10
2010,06,29,09,58,15.00
2010,06,29,09,59,15.00
2010,06,29,10,00,15.00
2010,06,29,10,01,15.00
2010,06,29,10,02,15.00
2010,06,29,10,03,15.00
2010,06,29,10,04,15.00
2010,06,29,10,05,15.00
2010,06,29,10,06,15.00
2010,06,29,10,07,15.00
2010,06,29,10,08,15.00
2010,06,29,10,09,15.00
2010,06,29,10,10,15.00
2010,06,29,10,11,15.10
2010,06,29,10,12,15.10
2010,06,29,10,13,15.20
2010,06,29,10,14,15.20
2010,06,29,10,15,15.30
2010,06,29,10,16,15.40
2010,06,29,10,17,15.40
2010,06,29,10,18,15.50
2010,06,29,10,19,15.60
2010,06,29,10,20,15.70
2010,06,29,10,21,15.80
2010,06,29,10,22,15.80
2010,06,29,10,23,15.80
2010,06,29,10,24,15.80
2010,06,29,10,25,15.80
2010,06,29,10,26,15.70
2010,06,29,10,27,15.70
2010,06,29,10,28,15.60
2010,06,29,10,29,15.60
2010,06,29,10,30,15.70
2010,06,29,10,31,15.70
2010,06,29,10,32,15.80
2010,06,29,10,33,15.80
2010,06,29,10,34,15.80
2010,06,29,10,35,15.70
2010,06,29,10,36,15.70
2010,06,29,10,37,15.80
2010,06,29,10,38,16.00
2010,06,29,10,39,16.00
2010,06,29,10,40,16.10
2010,06,29,10,41,16.10
2010,06,29,10,42,16.10
2010,06,29,10,43,16.10
2010,06,29,10,44,16.10
2010,06,29,10,45,16.10
2010,06,29,10,46,16.10
2010,06,29,10,47,16.10
2010,06,29,10,48,16.10
2010,06,29,10,49,16.10
2010,06,29,10,50,16.00
2010,06,29,10,51,16.00
2010,06,29,10,52,15.90
2010,06,29,10,53,15.90
2010,06,29,10,54,15.80
2010,06,29,10,55,15.90
2010,06,29,10,56,15.90
2010,06,29,10,57,15.90
2010,06,29,10,58,15.90
2010,06,29,10,59,15.90
2010,06,29,11,00,15.90
2010,06,29,11,01,16.00
2010,06,29,11,02,16.10
2010,06,29,11,03,16.20
2010,06,29,11,04,16.30
2010,06,29,11,05,16.50
2010,06,29,11,06,16.60
2010,06,29,11,07,16.60
2010,06,29,11,08,16.60
2010,06,29,11,09,16.50
2010,06,29,11,10,16.40
2010,06,29,11,11,16.20
2010,06,29,11,12,16.10
2010,06,29,11,13,16.00
2010,06,29,11,14,15.90
2010,06,29,11,15,15.80
2010,06,29,11,16,15.70
2010,06,29,11,17,15.70
2010,06,29,11,18,15.60
2010,06,29,11,19,15.50
2010,06,29,11,20,15.40
2010,06,29,11,21,15.40
2010,06,29,11,22,15.40
2010,06,29,11,23,15.40
2010,06,29,11,24,15.40
2010,06,29,11,25,15.50
2010,06,29,11,26,15.60
2010,06,29,11,27,15.60
2010,06,29,11,28,15.60
2010,06,29,11,29,15.60
2010,06,29,11,30,15.70
2010,06,29,11,31,15.70
2010,06,29,11,32,15.70
2010,06,29,11,33,15.80
2010,06,29,11,34,15.80
2010,06,29,11,35,15.80
2010,06,29,11,36,15.70
2010,06,29,11,37,15.60
2010,06,29,11,38,15.60
2010,06,29,11,39,15.60
2010,06,29,11,40,15.50
2010,06,29,11,41,15.40
2010,06,29,11,42,15.30
2010,06,29,11,43,15.20
2010,06,29,11,44,15.10
2010,06,29,11,45,15.10
2010,06,29,11,46,15.00
2010,06,29,11,47,15.00
2010,06,29,11,48,15.00
2010,06,29,11,49,15.10
2010,06,29,11,50,15.20
2010,06,29,11,51,15.20
2010,06,29,11,52,15.20
2010,06,29,11,53,15.30
2010,06,29,11,54,15.30
2010,06,29,11,55,15.30
2010,06,29,11,56,15.30
2010,06,29,11,57,15.30
2010,06,29,11,58,15.40
2010,06,29,11,59,15.50
2010,06,29,12,00,15.60
2010,06,29,12,01,15.70
2010,06,29,12,02,15.80
2010,06,29,12,03,15.90
2010,06,29,12,04,15.90
2010,06,29,12,05,15.90
2010,06,29,12,06,15.90
2010,06,29,12,07,16.00
2010,06,29,12,08,16.10
2010,06,29,12,09,16.10
2010,06,29,12,10,16.10
2010,06,29,12,11,16.00
2010,06,29,12,12,16.00
2010,06,29,12,13,16.00
2010,06,29,12,14,15.90
2010,06,29,12,15,15.90
2010,06,29,12,16,15.90
2010,06,29,12,17,15.90
2010,06,29,12,18,15.90
2010,06,29,12,19,15.80
2010,06,29,12,20,15.80
2010,06,29,12,21,15.80
2010,06,29,12,22,15.80
2010,06,29,12,23,15.80
2010,06,29,12,24,15.80
2010,06,29,12,25,15.80
2010,06,29,12,26,15.80
2010,06,29,12,27,15.70
2010,06,29,12,28,15.70
2010,06,29,12,29,15.80
2010,06,29,12,30,15.80
2010,06,29,12,31,15.90
2010,06,29,12,32,16.00
2010,06,29,12,33,16.10
2010,06,29,12,34,16.00
2010,06,29,12,35,16.00
2010,06,29,12,36,16.00
2010,06,29,12,37,16.10
2010,06,29,12,38,16.10
2010,06,29,12,39,16.10
2010,06,29,12,40,16.10
2010,06,29,12,41,16.10
2010,06,29,12,42,16.10
2010,06,29,12,43,16.10
2010,06,29,12,44,16.20
2010,06,29,12,45,16.20
2010,06,29,12,46,16.10
2010,06,29,12,47,16.10
2010,06,29,12,48,16.10
2010,06,29,12,49,16.10
2010,06,29,12,50,16.10
2010,06,29,12,51,16.10
2010,06,29,12,52,16.10
2010,06,29,12,53,16.10
2010,06,29,12,54,16.10
2010,06,29,12,55,16.10
2010,06,29,12,56,16.10
2010,06,29,12,57,16.10
2010,06,29,12,58,16.10
2010,06,29,12,59,16.10
2010,06,29,13,00,16.00
2010,06,29,13,01,16.00
2010,06,29,13,02,16.00
2010,06,29,13,03,16.00
2010,06,29,13,04,16.00
2010,06,29,13,05,16.00
2010,06,29,13,06,16.10
2010,06,29,13,07,16.00
2010,06,29,13,08,16.00
2010,06,29,13,09,16.00
2010,06,29,13,10,16.00
2010,06,29,13,11,16.10
2010,06,29,13,12,16.10
2010,06,29,13,13,16.10
2010,06,29,13,14,16.10
2010,06,29,13,15,16.10
2010,06,29,13,16,16.20
2010,06,29,13,17,16.20
2010,06,29,13,18,16.10
2010,06,29,13,19,16.10
2010,06,29,13,20,16.10
2010,06,29,13,21,16.10
2010,06,29,13,22,16.00
2010,06,29,13,23,16.00
2010,06,29,13,24,15.90
2010,06,29,13,25,15.80
2010,06,29,13,26,15.80
2010,06,29,13,27,15.70
2010,06,29,13,28,15.50
2010,06,29,13,29,15.40
2010,06,29,13,30,15.10
2010,06,29,13,31,15.00
2010,06,29,13,32,14.80
2010,06,29,13,33,14.50
2010,06,29,13,34,14.30
2010,06,29,13,35,14.10
2010,06,29,13,36,13.90
2010,06,29,13,37,13.80
2010,06,29,13,38,13.70
2010,06,29,13,39,13.60
2010,06,29,13,40,13.60
2010,06,29,13,41,13.60
2010,06,29,13,42,13.60
2010,06,29,13,43,13.60
2010,06,29,13,44,13.60
2010,06,29,13,45,13.60
2010,06,29,13,46,13.60
2010,06,29,13,47,13.70
2010,06,29,13,48,13.70
2010,06,29,13,49,13.70
2010,06,29,13,50,13.80
2010,06,29,13,51,13.90
2010,06,29,13,52,14.00
2010,06,29,13,53,14.10
2010,06,29,13,54,14.20
2010,06,29,13,55,14.40
2010,06,29,13,56,14.60
2010,06,29,13,57,14.80
2010,06,29,13,58,15.00
2010,06,29,13,59,15.00
2010,06,29,14,00,15.00
2010,06,29,14,01,15.10
2010,06,29,14,02,15.10
2010,06,29,14,03,15.20
2010,06,29,14,04,15.20
2010,06,29,14,05,15.30
2010,06,29,14,06,15.30
2010,06,29,14,07,15.30
2010,06,29,14,08,15.30
2010,06,29,14,09,15.30
2010,06,29,14,10,15.30
2010,06,29,14,11,15.40
2010,06,29,14,12,15.40
2010,06,29,14,13,15.50
2010,06,29,14,14,15.50
2010,06,29,14,15,15.60
2010,06,29,14,16,15.60
2010,06,29,14,17,15.80
2010,06,29,14,18,15.80
2010,06,29,14,19,15.80
2010,06,29,14,20,15.90
2010,06,29,14,21,15.90
2010,06,29,14,22,15.90
2010,06,29,14,23,16.00
2010,06,29,14,24,16.00
2010,06,29,14,25,16.00
2010,06,29,14,26,16.00
2010,06,29,14,27,16.00
2010,06,29,14,28,15.90
2010,06,29,14,29,16.00
2010,06,29,14,30,16.00
2010,06,29,14,31,16.10
2010,06,29,14,32,16.10
2010,06,29,14,33,16.10
2010,06,29,14,34,16.20
2010,06,29,14,35,16.20
2010,06,29,14,36,16.20
2010,06,29,14,37,16.30
2010,06,29,14,38,16.30
2010,06,29,14,39,16.20
2010,06,29,14,40,16.20
2010,06,29,14,41,16.20
2010,06,29,14,42,16.30
2010,06,29,14,43,16.30
2010,06,29,14,44,16.30
2010,06,29,14,45,16.30
2010,06,29,14,46,16.30
2010,06,29,14,47,16.30
2010,06,29,14,48,16.30
2010,06,29,14,49,16.30
2010,06,29,14,50,16.20
2010,06,29,14,51,16.10
2010,06,29,14,52,16.10
2010,06,29,14,53,16.00
2010,06,29,14,54,16.00
2010,06,29,14,55,16.00
2010,06,29,14,56,16.00
2010,06,29,14,57,15.90
2010,06,29,14,58,15.90
2010,06,29,14,59,15.70
2010,06,29,15,00,15.60
2010,06,29,15,01,15.50
2010,06,29,15,02,15.30
2010,06,29,15,03,15.10
2010,06,29,15,04,15.00
2010,06,29,15,05,15.00
2010,06,29,15,06,14.80
2010,06,29,15,07,14.60
2010,06,29,15,08,14.50
2010,06,29,15,09,14.40
2010,06,29,15,10,14.30
2010,06,29,15,11,14.30
2010,06,29,15,12,14.20
2010,06,29,15,13,14.20
2010,06,29,15,14,14.10
2010,06,29,15,15,14.10
2010,06,29,15,16,14.10
2010,06,29,15,17,14.10
2010,06,29,15,18,14.10
2010,06,29,15,19,14.10
2010,06,29,15,20,14.10
2010,06,29,15,21,14.10
2010,06,29,15,22,14.10
2010,06,29,15,23,14.10
2010,06,29,15,24,14.20
2010,06,29,15,25,14.30
2010,06,29,15,26,14.40
2010,06,29,15,27,14.50
2010,06,29,15,28,14.60
2010,06,29,15,29,14.80
2010,06,29,15,30,14.80
2010,06,29,15,31,15.00
2010,06,29,15,32,15.00
2010,06,29,15,33,15.00
2010,06,29,15,34,15.00
2010,06,29,15,35,15.10
2010,06,29,15,36,15.20
2010,06,29,15,37,15.30
2010,06,29,15,38,15.30
2010,06,29,15,39,15.40
2010,06,29,15,40,15.40
2010,06,29,15,41,15.50
2010,06,29,15,42,15.50
2010,06,29,15,43,15.50
2010,06,29,15,44,15.60
2010,06,29,15,45,15.60
2010,06,29,15,46,15.70
2010,06,29,15,47,15.70
2010,06,29,15,48,15.70
2010,06,29,15,49,15.60
2010,06,29,15,50,15.60
2010,06,29,15,51,15.60
2010,06,29,15,52,15.70
2010,06,29,15,53,15.70
2010,06,29,15,54,15.70
2010,06,29,15,55,15.70
2010,06,29,15,56,15.70
2010,06,29,15,57,15.70
2010,06,29,15,58,15.60
2010,06,29,15,59,15.70
2010,06,29,16,00,15.60
2010,06,29,16,01,15.60
2010,06,29,16,02,15.60
2010,06,29,16,03,15.60
2010,06,29,16,04,15.60
2010,06,29,16,05,15.70
2010,06,29,16,06,15.70
2010,06,29,16,07,15.70
2010,06,29,16,08,15.70
2010,06,29,16,09,15.70
2010,06,29,16,10,15.80
2010,06,29,16,11,15.90
2010,06,29,16,12,16.00
2010,06,29,16,13,16.10
2010,06,29,16,14,16.10
2010,06,29,16,15,16.20
2010,06,29,16,16,16.20
2010,06,29,16,17,16.10
2010,06,29,16,18,16.10
2010,06,29,16,19,16.00
2010,06,29,16,20,16.00
2010,06,29,16,21,16.00
2010,06,29,16,22,15.90
2010,06,29,16,23,15.90
2010,06,29,16,24,15.90
2010,06,29,16,25,15.90
2010,06,29,16,26,15.80
2010,06,29,16,27,15.80
2010,06,29,16,28,15.80
2010,06,29,16,29,15.80
2010,06,29,16,30,15.70
2010,06,29,16,31,15.70
2010,06,29,16,32,15.70
2010,06,29,16,33,15.70
2010,06,29,16,34,15.80
2010,06,29,16,35,15.80
2010,06,29,16,36,15.80
2010,06,29,16,37,15.80
2010,06,29,16,38,15.80
2010,06,29,16,39,15.80
2010,06,29,16,40,15.90
2010,06,29,16,41,15.90
2010,06,29,16,42,16.00
2010,06,29,16,43,16.10
2010,06,29,16,44,16.20
2010,06,29,16,45,16.20
2010,06,29,16,46,16.30
2010,06,29,16,47,16.30
2010,06,29,16,48,16.30
2010,06,29,16,49,16.20
2010,06,29,16,50,16.20
2010,06,29,16,51,16.20
2010,06,29,16,52,16.20
2010,06,29,16,53,16.20
2010,06,29,16,54,16.10
2010,06,29,16,55,16.10
2010,06,29,16,56,16.10
2010,06,29,16,57,16.10
2010,06,29,16,58,16.10
2010,06,29,16,59,16.10
2010,06,29,17,00,16.10
2010,06,29,17,01,16.10
2010,06,29,17,02,16.10
2010,06,29,17,03,16.20
2010,06,29,17,04,16.30
2010,06,29,17,05,16.30
2010,06,29,17,06,16.40
2010,06,29,17,07,16.40
2010,06,29,17,08,16.40
2010,06,29,17,09,16.40
2010,06,29,17,10,16.40
2010,06,29,17,11,16.40
2010,06,29,17,12,16.30
2010,06,29,17,13,16.40
2010,06,29,17,14,16.40
2010,06,29,17,15,16.50
2010,06,29,17,16,16.60
2010,06,29,17,17,16.60
2010,06,29,17,18,16.60
2010,06,29,17,19,16.50
2010,06,29,17,20,16.50
2010,06,29,17,21,16.50
2010,06,29,17,22,16.40
2010,06,29,17,23,16.30
2010,06,29,17,24,16.30
2010,06,29,17,25,16.20
2010,06,29,17,26,16.20
2010,06,29,17,27,16.10
2010,06,29,17,28,16.10
2010,06,29,17,29,16.00
2010,06,29,17,30,16.00
2010,06,29,17,31,15.90
2010,06,29,17,32,15.90
2010,06,29,17,33,15.80
2010,06,29,17,34,15.80
2010,06,29,17,35,15.80
2010,06,29,17,36,15.80
2010,06,29,17,37,15.80
2010,06,29,17,38,15.80
2010,06,29,17,39,15.80
2010,06,29,17,40,15.80
2010,06,29,17,41,15.80
2010,06,29,17,42,15.80
2010,06,29,17,43,15.80
2010,06,29,17,44,15.80
2010,06,29,17,45,15.80
2010,06,29,17,46,15.80
2010,06,29,17,47,15.80
2010,06,29,17,48,15.80
2010,06,29,17,49,15.80
2010,06,29,17,50,15.80
2010,06,29,17,51,15.90
2010,06,29,17,52,15.90
2010,06,29,17,53,15.90
2010,06,29,17,54,16.00
2010,06,29,17,55,16.10
2010,06,29,17,56,16.20
2010,06,29,17,57,16.30
2010,06,29,17,58,16.40
2010,06,29,17,59,16.50
2010,06,29,18,00,16.60
2010,06,29,18,01,16.80
2010,06,29,18,02,17.00
2010,06,29,18,03,17.10
2010,06,29,18,04,17.20
2010,06,29,18,05,17.30
2010,06,29,18,06,17.40
2010,06,29,18,07,17.40
2010,06,29,18,08,17.40
2010,06,29,18,09,17.40
2010,06,29,18,10,17.40
2010,06,29,18,11,17.40
2010,06,29,18,12,17.40
2010,06,29,18,13,17.30
2010,06,29,18,14,17.30
2010,06,29,18,15,17.30
2010,06,29,18,16,17.30
2010,06,29,18,17,17.40
2010,06,29,18,18,17.40
2010,06,29,18,19,17.40
2010,06,29,18,20,17.40
2010,06,29,18,21,17.40
2010,06,29,18,22,17.30
2010,06,29,18,23,17.30
2010,06,29,18,24,17.30
2010,06,29,18,25,17.30
2010,06,29,18,26,17.30
2010,06,29,18,27,17.40
2010,06,29,18,28,17.40
2010,06,29,18,29,17.50
2010,06,29,18,30,17.50
2010,06,29,18,31,17.60
2010,06,29,18,32,17.50
2010,06,29,18,33,17.50
2010,06,29,18,34,17.50
2010,06,29,18,35,17.40
2010,06,29,18,36,17.40
2010,06,29,18,37,17.30
2010,06,29,18,38,17.20
2010,06,29,18,39,17.20
2010,06,29,18,40,17.20
2010,06,29,18,41,17.10
2010,06,29,18,42,17.10
2010,06,29,18,43,17.10
2010,06,29,18,44,17.10
2010,06,29,18,45,17.10
2010,06,29,18,46,17.10
2010,06,29,18,47,17.00
2010,06,29,18,48,16.90
2010,06,29,18,49,16.90
2010,06,29,18,50,17.00
2010,06,29,18,51,17.00
2010,06,29,18,52,17.00
2010,06,29,18,53,17.00
2010,06,29,18,54,17.00
2010,06,29,18,55,16.90
2010,06,29,18,56,16.90
2010,06,29,18,57,16.80
2010,06,29,18,58,16.80
2010,06,29,18,59,16.70
2010,06,29,19,00,16.70
2010,06,29,19,01,16.60
2010,06,29,19,02,16.60
2010,06,29,19,03,16.60
2010,06,29,19,04,16.60
2010,06,29,19,05,16.70
2010,06,29,19,06,16.70
2010,06,29,19,07,16.70
2010,06,29,19,08,16.70
2010,06,29,19,09,16.70
2010,06,29,19,10,16.70
2010,06,29,19,11,16.70
2010,06,29,19,12,16.70
2010,06,29,19,13,16.70
2010,06,29,19,14,16.70
2010,06,29,19,15,16.70
2010,06,29,19,16,16.70
2010,06,29,19,17,16.70
2010,06,29,19,18,16.70
2010,06,29,19,19,16.70
2010,06,29,19,20,16.70
2010,06,29,19,21,16.70
2010,06,29,19,22,16.70
2010,06,29,19,23,16.70
2010,06,29,19,24,16.70
2010,06,29,19,25,16.70
2010,06,29,19,26,16.70
2010,06,29,19,27,16.70
2010,06,29,19,28,16.70
2010,06,29,19,29,16.70
2010,06,29,19,30,16.70
2010,06,29,19,31,16.70
2010,06,29,19,32,16.70
2010,06,29,19,33,16.70
2010,06,29,19,34,16.60
2010,06,29,19,35,16.60
2010,06,29,19,36,16.50
2010,06,29,19,37,16.40
2010,06,29,19,38,16.40
2010,06,29,19,39,16.30
2010,06,29,19,40,16.30
2010,06,29,19,41,16.30
2010,06,29,19,42,16.30
2010,06,29,19,43,16.30
2010,06,29,19,44,16.30
2010,06,29,19,45,16.30
2010,06,29,19,46,16.40
2010,06,29,19,47,16.30
2010,06,29,19,48,16.30
2010,06,29,19,49,16.30
2010,06,29,19,50,16.30
2010,06,29,19,51,16.30
2010,06,29,19,52,16.20
2010,06,29,19,53,16.20
2010,06,29,19,54,16.20
2010,06,29,19,55,16.10
2010,06,29,19,56,16.10
2010,06,29,19,57,16.00
2010,06,29,19,58,15.90
2010,06,29,19,59,15.90
2010,06,29,20,00,15.90
2010,06,29,20,01,15.90
2010,06,29,20,02,15.90
2010,06,29,20,03,15.90
2010,06,29,20,04,15.90
2010,06,29,20,05,15.90
2010,06,29,20,06,15.90
2010,06,29,20,07,15.90
2010,06,29,20,08,15.90
2010,06,29,20,09,15.90
2010,06,29,20,10,15.90
2010,06,29,20,11,15.90
